CW7386 Weather Reports


Display with metric or nautical units.
time (UTC)temp
F
wind
direction
speed
MPH
gust
MPH
rain 1hr
in
rain 24hr
in
rain mn
in
humidity
%
barometer
mb
20260505080015 56 169 2.0 7.0 0.00 0.00 0.00 82 1012.4
20260505074503 57 152 1.0 8.0 0.00 0.00 0.00 81 1012.3
20260505073005 57 237 4.0 8.0 0.00 0.00 0.00 80 1012.2
20260505071507 58 225 3.0 7.0 0.00 0.00 0.00 79 1012.0
20260505070012 59 202 2.0 7.0 0.00 0.00 0.00 77 1011.9
20260505064517 60 243 1.0 3.0 0.00 0.00 0.00 76 1011.7
20260505063003 60 230 1.0 5.0 0.00 0.00 0.00 1011.6
20260505061509 61 140 2.0 7.0 0.00 0.00 0.00 73 1011.5
20260505060010 62 302 2.0 7.0 0.00 0.00 0.00 70 1011.3
20260505054518 64 257 1.0 5.0 0.00 0.00 0.00 68 1011.2
20260505053003 65 173 2.0 5.0 0.00 0.00 0.00 67 1011.0
20260505051512 66 153 1.0 2.0 0.00 0.00 0.00 65 1010.9
20260505041503 69 221 0.0 0.0 0.00 0.00 0.00 53 1010.1
20260505040013 70 221 0.0 0.0 0.00 0.00 0.00 53 1009.9
20260505034516 71 299 0.0 0.0 0.00 0.00 0.00 50 1009.7
20260505033018 72 299 0.0 1.0 0.00 0.00 0.00 51 1009.4
20260505031524 73 338 0.0 2.0 0.00 0.00 0.00 48 1009.3
20260505030008 73 308 1.0 4.0 0.00 0.00 0.00 46 1009.2
20260505024512 74 334 1.0 4.0 0.00 0.00 0.00 46 1009.0
20260505023015 75 255 0.0 2.0 0.00 0.00 0.00 45 1009.0
20260505021521 76 329 3.0 9.0 0.00 0.00 0.00 43 1008.9
20260505020008 77 319 3.0 8.0 0.00 0.00 0.00 41 1009.0
20260505014512 78 282 2.0 10.0 0.00 0.00 0.00 40 1008.9
20260505013014 80 360 3.0 8.0 0.00 0.00 0.00 39 1008.9
20260505011519 81 205 1.0 5.0 0.00 0.00 0.00 36 1008.9
20260505010025 81 239 1.0 6.0 0.00 0.00 0.00 36 1008.9
20260505004508 81 331 1.0 7.0 0.00 0.00 0.00 35 1008.9
20260505003021 81 246 3.0 8.0 0.00 0.00 0.00 36 1009.0
20260505001518 81 226 4.0 8.0 0.00 0.00 0.00 36 1009.1
20260505000024 82 218 3.0 5.0 0.00 0.00 0.00 35 1009.1
20260504234528 82 201 2.0 6.0 0.00 0.00 0.00 35 1009.2
20260504233010 81 219 0.0 9.0 0.00 0.00 0.00 34 1009.2
20260504231518 80 214 2.0 7.0 0.00 0.00 0.00 35 1009.3
20260504230020 80 236 4.0 10.0 0.00 0.00 0.00 35 1009.3
20260504224526 80 221 1.0 12.0 0.00 0.00 0.00 36 1009.4
20260504223009 80 192 3.0 8.0 0.00 0.00 0.00 39 1009.6
20260504221514 81 267 1.0 9.0 0.00 0.00 0.00 35 1009.8
20260504220022 80 244 4.0 9.0 0.00 0.00 0.00 36 1010.1
20260504214526 80 142 3.0 9.0 0.00 0.00 0.00 36 1010.1
20260504213027 78 350 4.0 10.0 0.00 0.00 0.00 35 1010.1
20260504211513 80 267 3.0 9.0 0.00 0.00 0.00 33 1010.2
20260504210026 80 245 2.0 8.0 0.00 0.00 0.00 34 1010.3
20260504204524 80 207 4.0 8.0 0.00 0.00 0.00 32 1010.4
20260504203034 79 302 3.0 7.0 0.00 0.00 0.00 33 1010.4
20260504201514 79 219 3.0 9.0 0.00 0.00 0.00 35 1010.6
20260504200017 78 267 4.0 8.0 0.00 0.00 0.00 37 1010.6
20260504194521 79 227 4.0 7.0 0.00 0.00 0.00 37 1010.6
20260504193026 78 304 1.0 5.0 0.00 0.00 0.00 39 1010.4
20260504191527 77 223 3.0 7.0 0.00 0.00 0.00 37 1010.6
20260504190016 76 226 2.0 7.0 0.00 0.00 0.00 40 1010.6
20260504184521 77 248 2.0 6.0 0.00 0.00 0.00 42 1010.7
20260504183030 75 101 2.0 6.0 0.00 0.00 0.00 44 1010.8
20260504181510 74 168 2.0 6.0 0.00 0.00 0.00 46 1010.9
20260504180013 73 218 2.0 6.0 0.00 0.00 0.00 47 1010.9
20260504174520 71 226 4.0 6.0 0.00 0.00 0.00 47 1010.8
20260504173024 71 113 2.0 5.0 0.00 0.00 0.00 50 1010.9
20260504171527 70 213 3.0 4.0 0.00 0.00 0.00 52 1011.0
20260504081504 57 360 0.0 0.0 0.00 0.00 0.00 73 1009.3